Regional Weather Roundup
Issued by NWS

Home | Current Version | Previous Version | Graphics & Text | Print | Product List | Glossary On
Versions: 1 2 3 4 5 6 7 8 9 10 11 12 13 14 15 16 17 18 19 20 21 22 23 24 25 26 27 28 29 30 31 32 33 34 35 36 37 38 39 40 41 42 43 44 45 46 47 48 49 50
000
ASUS45 KPSR 300700
RWRAZ

ARIZONA HOURLY REGIONAL WEATHER ROUNDUP
NATIONAL WEATHER SERVICE PHOENIX AZ
1200 AM MST TUE JUN 30 2015

NOTE: FAIR INDICATES FEW OR NO CLOUDS BELOW 12,000 FEET WITH NO
SIGNIFICANT WEATHER AND/OR OBSTRUCTIONS TO VISIBILITY.

AZZ001>003-036-300800-
NORTHWEST ARIZONA

CITY           SKY/WX    TMP DP  RH WIND       PRES   REMARKS
KINGMAN        TSTM      76  61  59 SE33G46   30.14R
$$

AZZ004>008-015-016-018-300800-
NORTH CENTRAL ARIZONA

CITY           SKY/WX    TMP DP  RH WIND       PRES   REMARKS
GRAND CANYON   MOCLDY    58  54  86 CALM      30.32S
WILLIAMS       CLOUDY    59  55  88 SE6       30.38F
PRESCOTT       CLOUDY    67  62  84 E3        30.19S
FLAGSTAFF      NOT AVBL
PAYSON         MOCLDY    73  50  43 CALM      30.19R
PAGE           MOCLDY    87  47  24 NW5       30.06S
$$

AZZ009>014-017-300800-
NORTHEAST ARIZONA

CITY           SKY/WX    TMP DP  RH WIND       PRES   REMARKS
WINSLOW        NOT AVBL
SAINT JOHNS    MOCLDY    66  57  72 N6        30.21R
WINDOW ROCK    PTCLDY    67  49  52 CALM      30.29S
SHOW LOW       MOCLDY    64  48  55 CALM      30.25F
$$

AZZ023-300800-
GREATER PHOENIX AREA

CITY           SKY/WX    TMP DP  RH WIND       PRES   REMARKS
PHOENIX        CLOUDY    92  66  42 NW5       29.82F
DEER VALLEY    CLOUDY    91  60  35 NW6       29.86F
SCOTTSDALE     CLOUDY    89  66  46 N6        29.87F
MESA-GATEWAY   PTCLDY    90  61  37 NE5       29.88F
$$

AZZ027-028-300800-
SOUTHWEST MARICOPA COUNTY AND PINAL COUNTY

CITY           SKY/WX    TMP DP  RH WIND       PRES   REMARKS
CASA GRANDE    PTCLDY    88  64  45 CALM      29.86S
$$

AZZ503-504-507>509-300800-
SOUTHEAST ARIZONA

CITY           SKY/WX    TMP DP  RH WIND       PRES   REMARKS
TUCSON         PTCLDY    82  65  56 S7        29.99S
NOGALES        PTCLDY    72  61  68 CALM      30.07F
SAFFORD        CLEAR     79  59  50 N3        29.96S
$$

AZZ020-021-025-026-031-300800-
SOUTHWEST ARIZONA

CITY           SKY/WX    TMP DP  RH WIND       PRES   REMARKS
YUMA           NOT AVBL
$$

CAZ031-033-041-043-047-048-061-300800-
SOUTHERN CALIFORNIA

CITY           SKY/WX    TMP DP  RH WIND       PRES   REMARKS
DOWNTOWN L.A.  CLEAR     69  57  65 CALM      29.90F
L.A. AIRPORT   PTCLDY    67  60  78 NW6       29.91F
SAN DIEGO      PTCLDY    69  62  78 W3        29.92S
BURBANK        CLEAR     75  57  53 E7        29.91S
ONTARIO        MOCLDY    76  58  53 SW5       29.92F
RIVERSIDE      PTCLDY    75  59  57 W5        29.92F
PALM SPRINGS   PTCLDY    97  54  23 NW9       29.81F
EL CENTRO NAS  PTCLDY    92  62  36 S7        29.76F
IMPERIAL       MOCLDY    95  62  33 S7        29.74F
BLYTHE         CLOUDY    99  60  27 S7        29.78R
$$

NVZ020-UTZ003-300800-
SOUTHERN NEVADA-UTAH

CITY           SKY/WX    TMP DP  RH WIND       PRES   REMARKS
LAS VEGAS      NOT AVBL
SALT LAKE CITY MOCLDY    84  54  35 S7        30.01S
$$

NMZ009-TXZ055-300800-
NEW MEXICO-WEST TEXAS

CITY           SKY/WX    TMP DP  RH WIND       PRES   REMARKS
ALBUQUERQUE    PTCLDY    75  47  36 E16G23    30.22S
EL PASO        CLOUDY    73  59  61 S12G21    30.10F THUNDER
$$


........................KEY........................
SKY/WX - SKY CONDITION/WEATHER
TMP    - TEMPERATURE IN FAHRENHEIT
DP     - DEW POINT IN FAHRENHEIT
RH     - RELATIVE HUMIDITY IN PERCENT
WIND   - DIRECTION AND SPEED IN MILES PER HOUR (MPH)
VRB    - VARIABLE WIND DIRECTION
PRES   - MEAN SEA LEVEL PRESSURE IN INCHES OF MERCURY
         F - FALLING PRESSURE   R - RISING PRESSURE
         S - STEADY PRESSURE
VSB    - VISIBILITY IN MILES
HX     - HEAT INDEX IN FAHRENHEIT
WCI    - WIND CHILL INDEX IN FAHRENHEIT
TC     - TEMPERATURE IN CELSIUS WHICH IS ALSO KNOWN AS
         TEMPERATURE IN CENTIGRADE
AFB    - AIR FORCE BASE
         LUKE AFB IS LUKE AIR FORCE BASE
         DAVIS-MONTHAN IS DAVIS-MONTHAN AIR FORCE BASE
NAS    - NAVAL AIR STATION
         EL CENTRO NAS IS EL CENTRO NAVAL AIR STATION
N/A    - NOT AVAILABLE



USA.gov is the U.S. government's official web portal to all federal, state and local government web resources and services.